Regional Weather Roundup
Issued by NWS Memphis, TN

Home | Current Version | Previous Version | Text Only | Print | Product List | Glossary On
Versions: 1 2 3 4 5 6 7 8 9 10 11 12 13 14 15 16 17 18 19 20 21 22 23 24 25 26 27 28 29 30 31 32 33 34 35 36 37 38 39 40 41 42 43 44 45 46 47 48 49 50
000
ASUS44 KMEG 170110
RWRMEG
MEMPHIS CWA HOURLY WEATHER ROUNDUP
NATIONAL WEATHER SERVICE MEMPHIS TN
800 PM CDT TUE SEP 16 2014

...WEST TENNESSEE...

CITY           SKY/WX    TMP DP  RH WIND       PRES   REMARKS
MEMPHIS INTL   MOCLDY    73  64  73 NE7       30.04R
NWS MEMPHIS      N/A     71 N/A N/A MISG        N/A
JACKSON        MOCLDY    66  61  84 NE5       30.05S
LEXINGTON      CLEAR     63  59  88 CALM      30.05S
SAVANNAH       CLEAR     68  64  88 CALM      30.06R
DYERSBURG      CLOUDY    66  52  59 N7        30.07S
UNION CITY     CLOUDY    64  57  77 N5        30.07S
PARIS          CLOUDY    63  55  77 NE3       30.08R
HUNTINGDON     CLOUDY    65  58  78 NE5       30.07S


...EASTERN ARKANSAS...

CITY           SKY/WX    TMP DP  RH WIND       PRES   REMARKS
JONESBORO      CLOUDY    68  59  73 NE6       30.06F
WEST MEMPHIS   MOCLDY    70  64  81 NE8       30.03S
BATESVILLE     CLOUDY    68  59  73 E5        30.06S
NEWPORT        PTCLDY    66  61  84 N7        30.07R
WALNUT RIDGE   CLOUDY    66  57  72 N6        30.06F
BLYTHEVILLE    CLOUDY    68  61  78 N7        30.07S
SEARCY         CLEAR     70  62  75 NE10      30.06R
STUTTGART      CLOUDY    70  64  83 N5        30.05R
PINE BLUFF     MOCLDY    73  67  81 N8        30.03R
MONTICELLO     CLEAR     79  70  74 NE5       30.00S


...NORTH MISSISSIPPI...

CITY           SKY/WX    TMP DP  RH WIND       PRES   REMARKS
TUPELO         CLEAR     75  68  78 NE9       30.02R
OXFORD         CLEAR     70  66  88 N5        30.05S
OLIVE BRANCH   PTCLDY    70  70 100 NE5       30.04S
CLARKSDALE     PTCLDY    73  70  88 CALM      30.03S
CORINTH        PTCLDY    70  64  83 CALM      30.04S
GRENADA        CLEAR     77  70  78 N6        30.01R
GREENWOOD      CLEAR     75  70  84 N3        29.99R
COLUMBUS       PTCLDY    78  68  70 N6        30.00R
STARKVILLE     FAIR      75  68  78 CALM      30.00R
GOLDEN TRIANGL PTCLDY    81  66  61 N5        30.00R


...SOUTHEAST MISSOURI...

CITY           SKY/WX    TMP DP  RH WIND       PRES   REMARKS
WEST PLAINS    CLOUDY    64  59  83 SE3       30.10S
POPLAR BLUFF   CLOUDY    66  56  70 NE3       30.07S
CAPE GIRARDEAU CLEAR     58  53  84 E5        30.10S


...NORTHWEST ALABAMA...

CITY           SKY/WX    TMP DP  RH WIND       PRES   REMARKS
MUSCLE SHOALS  CLEAR     73  66  78 N5        30.04R


...MIDDLE TENNESSEE...

CITY           SKY/WX    TMP DP  RH WIND       PRES   REMARKS
NASHVILLE      PTCLDY    66  59  78 N6        30.06R
CLARKSVILLE    CLEAR     59  53  80 N6        30.07R
DICKSON        CLEAR     61  55  82 CALM      30.07S
COLUMBIA       CLEAR     66  64  94 CALM      30.05R
LEWISBURG      CLEAR     67  64  90 CALM      30.05S


...WESTERN KENTUCKY...

CITY           SKY/WX    TMP DP  RH WIND       PRES   REMARKS
PADUCAH        CLEAR     60  52  74 N6        30.09R
FORT CAMPBELL  CLEAR     62  54  75 N6        30.07R


...CENTRAL ARKANSAS...

CITY           SKY/WX    TMP DP  RH WIND       PRES   REMARKS
LITTLE ROCK    PTCLDY    71  65  81 NE6       30.04R


SKY/WX REPORTED AS FAIR MEANS FEW OR NO CLOUDS BELOW
12 THOUSAND FEET.




USA.gov is the U.S. government's official web portal to all federal, state and local government web resources and services.